Temp
14 14 14 14 14 14 14 15 15 15 16 16 16 17 18 18 18 18 20 22 21 20 20 20 21 21 21 22 23 23 20 22 23 22 20 19 20 19 20 22 24 24 23 23 23
14 14 14 14 14 14 14 14 15 15 15 16 16 16 17 18 18 20 23 22 21 21 20 20 21 22 22 24 25 22 21 24 26 23 22 21 20 19 21 22 20 24 24 24 22
13 14 14 14 14 14 14 14 15 15 15 16 16 16 17 17 19 22 23 22 22 21 21 21 22 23 23 25 24 19 20 26 26 23 22 21 20 20 20 22 24 24 24 24 23
13 13 13 14 14 14 14 14 15 15 15 16 16 16 16 17 20 22 23 22 22 21 22 21 22 24 24 25 20 17 20 25 25 24 23 22 21 21 21 20 24 24 24 24 24
13 14 13 13 14 14 14 14 15 15 15 15 16 16 16 16 20 22 22 22 21 21 22 20 21 25 25 27 21 19 26 25 26 25 24 23 22 21 19 21 24 24 24 25 24
13 14 14 14 14 14 14 15 15 15 15 15 15 16 16 15 22 22 22 22 22 22 23 21 23 26 27 27 27 26 25 25 26 25 24 23 22 22 19 22 23 24 24 25 25
14 14 14 14 14 15 15 15 16 16 16 16 16 16 15 20 21 22 22 22 23 22 22 23 24 26 28 27 27 25 25 23 27 25 25 24 22 21 21 22 24 24 25 25 25
15 15 15 15 15 15 15 16 16 16 16 16 16 16 17 22 22 21 21 20 21 22 22 24 25 26 27 28 27 26 22 21 26 25 24 24 20 22 22 23 24 24 25 25 25
15 15 15 15 15 15 16 16 16 16 16 16 16 16 17 22 22 22 22 21 21 22 23 23 26 26 27 25 24 25 23 23 25 26 25 23 21 22 22 22 24 24 25 25 25
16 16 15 16 16 16 16 16 16 16 16 16 15 14 20 21 22 23 23 23 23 23 23 24 26 23 22 22 22 25 25 26 24 20 20 21 22 21 21 23 24 24 25 25 25
16 16 16 16 16 16 16 16 15 16 15 17 19 20 22 23 23 23 23 24 24 24 22 25 21 20 21 23 26 27 27 25 20 22 19 21 21 21 21 23 24 24 25 25 25
16 16 16 16 17 17 17 17 19 20 20 20 21 21 22 23 23 23 24 24 24 22 23 22 20 23 25 26 27 27 27 21 21 21 21 20 21 21 21 23 24 24 25 25 25
16 16 16 16 17 17 17 18 20 20 20 21 22 21 23 24 24 24 24 24 23 22 23 21 23 25 26 26 27 27 26 24 23 21 19 20 19 21 21 24 23 23 24 25 25
16 16 16 17 17 17 18 20 20 21 17 21 22 23 24 24 24 24 24 24 25 23 23 23 25 26 26 26 27 24 28 28 23 23 21 22 18 17 20 20 22 22 23 24 24
17 16 16 16 17 17 20 20 20 20 17 24 23 24 24 24 25 25 24 24 23 24 24 23 25 25 26 27 28 27 28 27 26 24 22 21 19 19 19 20 21 22 23 24 24
16 17 17 17 17 19 19 20 20 17 19 24 25 24 23 24 24 25 24 24 25 24 24 25 28 27 27 29 29 29 29 27 25 21 22 24 22 18 18 20 20 22 23 23 23
17 17 17 17 18 19 20 20 17 15 19 21 21 24 24 23 24 24 24 22 21 21 21 25 26 27 29 27 27 27 27 22 23 21 22 24 23 18 19 18 19 19 20 23 23
17 18 18 19 19 19 20 18 16 16 17 20 20 22 22 24 24 25 23 22 23 23 22 21 22 26 28 27 25 25 24 21 23 23 24 25 18 19 19 20 19 19 20 18 21
18 19 19 20 20 20 19 14 14 16 18 19 21 22 23 24 22 22 23 22 24 24 22 21 23 27 28 28 27 25 24 25 25 25 24 21 19 18 20 18 18 18 21 17 18
18 19 20 21 20 19 17 14 14 18 19 21 19 20 19 21 18 15 18 24 22 24 25 23 21 25 28 28 28 26 25 22 22 24 24 20 20 19 19 20 19 17 16 15 17
18 18 22 21 21 19 12 15 19 21 21 20 20 20 19 19 16 15 16 19 22 23 23 22 21 22 26 25 25 24 22 24 23 23 22 19 19 17 18 18 18 17 15 15 15
17 18 22 22 17 15 13 14 19 21 21 21 21 20 20 19 17 17 16 19 22 23 21 21 20 20 23 26 26 25 24 23 20 22 21 18 17 16 18 17 17 16 14 14 15
15 18 23 22 18 15 16 20 21 22 20 21 21 21 21 20 18 16 17 20 22 21 19 19 18 19 21 24 25 24 24 24 23 21 22 21 16 16 17 17 16 16 14 14 14
16 19 23 23 22 21 21 21 20 21 21 21 20 21 20 19 20 19 19 22 22 22 21 19 20 18 16 20 22 24 25 25 24 20 20 19 17 17 16 16 16 15 15 14 14
17 20 21 18 20 20 20 21 21 20 21 21 20 21 19 16 17 20 20 22 22 22 22 18 18 19 20 22 23 23 24 25 25 22 20 19 18 17 17 16 16 15 15 15 15
19 19 20 21 21 21 19 20 19 20 19 19 19 21 17 16 15 16 17 19 21 20 22 21 16 19 19 23 23 22 25 26 25 22 19 18 17 17 17 17 17 16 16 16 15
17 17 18 20 20 19 18 19 20 20 20 19 19 18 17 18 18 18 18 20 20 19 18 19 17 18 17 19 22 20 22 23 23 22 20 17 15 16 17 17 17 17 16 16 15
Height
1509 1506 1504 1502 1500 1499 1498 1497 1496 1495 1495 1494 1493 1493 1492 1491 1491 1490 1488 1491 1492 1495 1497 1500 1501 1502 1504 1505 1506 1505 1510 1509 1503 1509 1511 1515 1517 1522 1523 1526 1527 1527 1531 1535 1543
1506 1504 1502 1500 1498 1496 1495 1494 1494 1493 1493 1492 1492 1491 1490 1489 1488 1485 1485 1486 1489 1492 1495 1497 1500 1501 1501 1499 1502 1506 1509 1499 1492 1499 1505 1511 1513 1515 1521 1521 1526 1530 1535 1540 1545
1505 1502 1500 1498 1496 1494 1492 1491 1490 1491 1491 1491 1490 1489 1489 1488 1486 1481 1481 1482 1486 1490 1493 1495 1498 1499 1498 1497 1503 1513 1508 1491 1492 1497 1504 1510 1515 1517 1518 1521 1523 1526 1533 1539 1543
1503 1500 1498 1495 1493 1491 1490 1489 1488 1488 1488 1489 1489 1488 1487 1487 1486 1481 1481 1481 1484 1488 1491 1492 1495 1497 1495 1495 1501 1519 1505 1496 1494 1498 1504 1510 1517 1521 1523 1526 1530 1530 1534 1538 1542
1501 1499 1496 1493 1491 1488 1487 1486 1485 1485 1485 1486 1487 1487 1487 1487 1479 1479 1480 1481 1483 1485 1488 1490 1492 1492 1491 1487 1499 1504 1492 1497 1494 1497 1502 1510 1517 1520 1526 1527 1531 1533 1537 1540 1543
1499 1496 1494 1491 1489 1486 1484 1483 1483 1483 1483 1484 1485 1486 1487 1486 1477 1478 1479 1480 1481 1484 1487 1489 1487 1488 1486 1485 1485 1489 1492 1496 1496 1497 1503 1508 1517 1520 1529 1528 1532 1534 1538 1540 1543
1496 1493 1490 1488 1486 1484 1482 1481 1481 1481 1481 1482 1483 1484 1484 1476 1476 1477 1476 1479 1481 1483 1486 1487 1486 1489 1486 1484 1481 1486 1490 1495 1494 1496 1503 1509 1520 1523 1524 1528 1532 1534 1538 1541 1543
1495 1492 1489 1486 1484 1482 1481 1479 1479 1479 1480 1481 1482 1483 1478 1474 1476 1478 1476 1478 1481 1484 1485 1486 1488 1488 1486 1484 1485 1486 1499 1509 1493 1496 1504 1504 1530 1524 1524 1526 1530 1534 1537 1540 1544
1494 1491 1488 1486 1484 1482 1480 1480 1479 1479 1480 1482 1483 1483 1476 1472 1474 1476 1477 1478 1482 1484 1485 1485 1487 1487 1484 1487 1492 1487 1503 1502 1498 1494 1497 1504 1526 1524 1526 1527 1528 1532 1535 1539 1542
1495 1492 1489 1487 1484 1483 1482 1482 1481 1481 1482 1483 1483 1486 1471 1469 1471 1473 1476 1478 1482 1484 1486 1486 1486 1489 1490 1496 1511 1494 1491 1487 1498 1505 1505 1513 1516 1522 1524 1526 1527 1530 1534 1537 1541
1495 1493 1491 1489 1486 1486 1484 1483 1485 1484 1481 1475 1473 1469 1467 1467 1470 1472 1474 1477 1481 1484 1486 1483 1493 1502 1494 1487 1481 1478 1480 1488 1505 1502 1506 1516 1514 1518 1522 1524 1527 1530 1532 1536 1540
1495 1493 1491 1490 1487 1485 1484 1482 1480 1481 1476 1471 1469 1468 1466 1468 1469 1471 1475 1476 1477 1483 1482 1488 1498 1487 1484 1481 1478 1476 1481 1505 1506 1503 1505 1509 1518 1519 1523 1523 1525 1529 1531 1534 1538
1496 1494 1492 1490 1488 1486 1484 1482 1479 1478 1476 1466 1464 1464 1461 1466 1468 1470 1474 1475 1476 1480 1481 1490 1482 1479 1480 1477 1478 1476 1481 1491 1495 1507 1503 1511 1528 1527 1523 1525 1527 1529 1533 1534 1537
1496 1494 1492 1491 1489 1486 1483 1479 1478 1479 1482 1464 1460 1461 1462 1464 1466 1467 1472 1475 1474 1479 1479 1483 1472 1475 1474 1475 1472 1487 1466 1467 1490 1498 1517 1501 1548 1539 1527 1526 1528 1530 1532 1535 1537
1496 1493 1491 1490 1488 1485 1481 1481 1480 1479 1498 1455 1457 1458 1459 1463 1462 1464 1469 1472 1473 1472 1475 1479 1470 1472 1472 1469 1463 1472 1465 1469 1477 1490 1502 1515 1528 1526 1527 1529 1528 1529 1533 1535 1537
1495 1493 1491 1489 1486 1483 1481 1479 1480 1488 1485 1454 1453 1456 1460 1462 1461 1463 1467 1471 1468 1470 1468 1468 1461 1461 1462 1458 1456 1456 1464 1470 1479 1495 1514 1498 1512 1533 1530 1521 1526 1527 1529 1535 1538
1491 1490 1489 1488 1484 1480 1479 1480 1489 1504 1476 1469 1465 1455 1457 1460 1461 1461 1465 1471 1477 1483 1481 1466 1463 1456 1455 1461 1455 1460 1470 1508 1515 1520 1523 1484 1505 1516 1511 1514 1518 1529 1533 1533 1536
1488 1485 1484 1483 1482 1480 1478 1481 1501 1495 1488 1472 1468 1458 1461 1456 1458 1456 1464 1474 1467 1468 1476 1483 1488 1459 1451 1457 1467 1468 1475 1508 1519 1517 1501 1476 1524 1512 1505 1519 1522 1520 1527 1535 1535
1483 1482 1478 1478 1480 1481 1482 1498 1500 1492 1483 1478 1465 1462 1457 1455 1463 1466 1464 1470 1463 1461 1480 1480 1474 1449 1448 1454 1459 1467 1476 1463 1483 1479 1492 1506 1515 1514 1511 1517 1519 1521 1518 1535 1532
1481 1479 1475 1473 1480 1482 1485 1498 1494 1486 1482 1477 1481 1470 1476 1470 1480 1490 1484 1460 1469 1461 1459 1467 1486 1456 1447 1451 1454 1459 1463 1488 1484 1505 1506 1516 1518 1519 1514 1517 1523 1527 1523 1531 1527
1480 1479 1472 1473 1476 1481 1500 1496 1484 1479 1480 1480 1477 1476 1478 1479 1488 1501 1500 1484 1470 1467 1466 1470 1480 1469 1450 1460 1465 1469 1477 1472 1477 1483 1505 1531 1525 1514 1518 1520 1525 1528 1530 1529 1527
1482 1480 1472 1473 1482 1488 1492 1489 1478 1476 1478 1477 1474 1477 1480 1485 1492 1501 1507 1490 1477 1473 1477 1476 1483 1485 1466 1451 1454 1460 1466 1472 1498 1498 1495 1512 1533 1520 1519 1528 1528 1532 1533 1532 1534
1480 1477 1471 1471 1482 1489 1482 1476 1475 1475 1478 1476 1477 1478 1479 1483 1497 1500 1495 1485 1480 1478 1483 1482 1490 1492 1480 1466 1460 1466 1464 1465 1469 1478 1493 1510 1532 1519 1518 1529 1534 1535 1535 1536 1537
1482 1475 1470 1469 1471 1470 1471 1472 1478 1478 1476 1477 1477 1474 1478 1483 1482 1485 1486 1480 1480 1480 1480 1482 1485 1496 1507 1487 1474 1471 1465 1463 1469 1494 1499 1508 1521 1522 1525 1532 1532 1538 1539 1540 1538
1482 1476 1475 1479 1476 1475 1476 1474 1475 1480 1479 1479 1478 1476 1480 1490 1489 1486 1487 1482 1481 1481 1480 1483 1493 1490 1478 1475 1471 1470 1466 1466 1472 1482 1501 1507 1515 1522 1526 1530 1532 1537 1540 1542 1542
1485 1482 1478 1476 1476 1476 1479 1482 1483 1484 1485 1483 1481 1477 1481 1491 1493 1497 1492 1486 1480 1480 1480 1480 1502 1490 1490 1473 1472 1475 1460 1463 1467 1477 1488 1498 1515 1517 1525 1526 1529 1537 1540 1543 1546
1489 1485 1483 1477 1475 1478 1484 1485 1486 1487 1487 1487 1486 1487 1489 1491 1490 1488 1486 1486 1482 1484 1487 1487 1496 1502 1504 1486 1480 1493 1478 1474 1474 1473 1481 1506 1514 1522 1526 1529 1531 1539 1543 1547 1551
Wind_Speed
14 14 14 14 14 14 14 14 14 12 11 9 10 10 10 11 11 15 18 6 14 6 15 8 11 17 17 23 23 13 3 2 9 9 8 17 7 15 11 7 25 15 30 35 34
15 15 15 15 14 13 14 14 13 12 12 10 9 10 9 11 12 19 13 13 14 12 15 15 16 16 21 19 13 3 3 3 9 14 16 14 8 11 6 6 10 33 28 36 41
16 16 16 17 15 14 13 14 13 11 11 10 10 9 9 9 9 6 6 17 14 15 15 16 16 18 23 22 6 7 4 6 17 28 24 15 10 5 10 2 34 36 35 31 43
16 16 17 17 16 15 14 13 12 11 10 9 9 8 7 6 1 3 3 8 10 14 17 18 22 23 13 12 16 3 20 9 23 27 24 17 19 11 15 11 26 38 35 35 39
16 16 16 16 16 16 14 13 12 10 8 7 8 7 6 5 13 6 6 6 11 15 22 18 20 22 14 11 24 15 9 8 23 26 23 22 15 13 19 19 23 36 28 30 35
18 16 16 15 15 15 14 11 10 8 7 7 7 6 5 6 7 5 7 5 14 19 22 17 15 19 19 20 7 3 2 13 21 24 27 20 19 12 26 26 22 33 27 28 27
19 17 15 14 14 14 12 9 7 6 5 6 5 7 9 18 5 3 7 9 13 21 20 15 17 20 17 14 13 5 7 7 19 25 18 26 13 13 27 20 31 31 29 25 25
19 16 15 13 12 10 8 5 4 3 4 5 5 6 10 5 6 10 3 6 15 16 17 11 15 21 22 18 2 7 6 5 14 19 18 8 9 14 23 24 29 29 28 26 25
17 15 12 11 10 8 6 4 2 2 3 4 4 4 10 5 12 11 10 12 13 14 14 17 16 15 15 6 6 7 6 15 14 12 17 5 10 15 18 26 24 29 28 25 32
18 13 11 11 8 8 8 7 4 5 4 4 5 6 14 16 13 15 13 15 17 15 17 20 7 1 6 4 7 6 8 2 8 2 10 3 12 10 14 24 26 29 30 25 34
17 11 9 10 9 7 8 4 2 1 7 11 10 11 4 7 12 17 17 20 18 19 7 14 4 7 11 12 16 12 11 7 7 8 6 9 17 14 15 19 24 27 28 27 33
14 9 8 8 8 9 11 8 10 11 9 18 20 22 23 10 14 14 16 12 14 8 10 4 8 12 14 19 19 18 13 10 6 4 8 16 15 12 15 15 25 24 25 30 32
12 9 7 9 11 11 12 9 7 14 8 19 23 20 20 19 16 16 20 19 9 8 8 9 12 19 18 16 17 15 9 15 10 10 11 6 5 9 13 15 12 13 18 28 29
11 10 7 9 12 10 19 12 11 12 3 6 12 12 9 15 8 19 20 17 6 11 10 10 22 16 17 14 12 8 9 11 21 9 5 6 2 5 13 11 11 16 14 22 28
13 11 9 10 14 14 11 9 10 7 4 13 14 9 15 11 9 18 20 21 11 10 7 10 13 14 15 15 12 11 10 15 22 17 8 12 6 3 3 14 12 19 21 24 26
16 16 14 13 16 9 13 13 10 2 2 4 7 7 11 17 18 18 20 21 20 11 11 14 21 15 9 14 12 10 7 7 3 4 1 9 8 5 8 11 8 22 24 22 27
16 17 18 17 12 7 10 12 2 4 17 12 5 2 8 8 13 10 11 10 7 5 7 11 16 11 12 6 6 6 2 3 1 3 6 10 10 3 13 14 16 6 14 25 30
17 15 15 12 5 8 11 5 4 3 7 7 7 19 10 10 11 14 9 8 13 13 6 7 7 13 4 4 7 7 6 5 7 5 7 6 6 5 8 14 17 8 17 17 17
17 14 14 5 3 4 6 5 4 1 6 7 18 6 4 4 6 12 9 10 13 11 5 3 10 8 8 7 9 8 8 9 4 7 3 5 5 7 5 7 12 12 14 5 9
18 13 17 7 11 5 8 0 4 9 8 11 9 7 7 10 8 18 11 10 3 9 6 1 5 12 11 5 0 2 4 5 1 4 4 4 3 7 10 12 12 11 20 14 10
12 5 5 6 12 14 2 4 8 8 3 6 5 4 7 7 6 4 7 19 13 8 13 6 4 8 7 4 4 2 4 1 1 1 4 5 1 8 9 10 12 17 20 24 19
5 3 6 2 9 6 7 6 8 10 7 4 6 8 5 11 8 3 5 8 21 12 4 3 4 6 7 4 7 6 6 4 4 5 3 5 1 1 14 16 21 18 22 26 19
9 10 4 6 5 4 4 6 9 3 8 3 4 3 4 2 6 7 7 12 11 7 3 6 5 4 6 1 5 5 8 7 3 2 5 4 4 5 20 16 18 19 21 23 22
6 3 2 1 5 2 2 5 6 1 4 3 7 4 6 2 2 4 7 10 5 6 6 5 3 4 3 3 4 4 5 7 2 4 5 2 13 15 16 15 22 18 21 22 26
4 3 6 4 7 6 7 7 9 4 6 3 2 1 5 6 6 2 5 4 7 2 3 4 3 6 9 8 8 9 9 9 1 11 6 7 10 15 16 17 24 24 23 24 23
9 7 14 3 8 5 4 5 11 8 8 9 7 9 8 6 4 3 4 6 0 5 1 2 1 9 7 6 6 9 6 6 6 13 10 10 16 14 22 27 27 22 22 24 24
18 20 9 9 5 7 5 6 8 3 6 10 9 9 13 7 7 12 18 17 9 4 5 3 4 3 6 10 7 5 8 7 5 8 13 12 11 17 17 20 25 22 23 24 24
Wind_Direction
332 329 326 320 314 309 303 304 305 298 290 293 297 296 292 290 285 267 246 218 210 190 193 207 199 193 210 237 228 202 253 267 170 137 138 156 129 118 150 149 135 137 147 144 145
330 327 326 325 320 311 306 297 297 297 292 289 293 297 292 294 288 270 263 224 203 205 211 187 200 204 235 232 227 58 279 13 89 127 142 141 135 158 147 125 118 136 148 142 144
328 325 323 321 320 314 307 299 294 293 288 285 290 294 295 298 308 287 285 213 200 209 204 186 208 211 230 235 143 11 256 129 112 120 129 127 117 137 109 66 151 146 158 151 146
326 322 320 318 315 313 309 300 291 292 285 277 283 288 290 282 121 324 6 175 186 202 200 207 233 235 244 242 121 37 262 246 134 135 137 142 136 113 123 138 148 148 163 149 156
325 320 317 315 313 312 310 303 292 287 281 268 270 278 278 264 257 282 350 208 198 198 198 212 245 226 232 242 142 180 221 91 144 140 137 137 130 114 118 138 147 156 166 161 156
335 329 321 317 313 311 309 305 293 284 270 255 258 253 252 252 217 250 292 229 207 193 192 211 237 229 254 259 152 107 228 170 140 136 136 135 130 117 150 153 162 163 169 174 165
337 333 328 325 320 314 312 306 291 277 251 232 240 248 239 225 123 319 266 213 202 195 191 209 233 256 259 279 154 71 354 5 168 138 136 130 151 146 164 158 158 168 175 175 167
345 342 339 337 335 331 325 321 296 253 224 213 209 236 256 234 211 226 200 202 175 202 194 212 252 259 276 275 30 196 65 321 143 135 149 139 144 152 167 173 164 173 177 177 159
354 352 358 360 357 354 2 10 55 132 173 189 159 229 264 195 191 196 209 189 173 198 219 245 244 265 288 288 299 188 185 213 156 165 156 117 142 156 177 183 170 175 178 182 150
356 3 9 12 18 33 51 41 66 107 139 168 171 281 234 211 216 192 200 179 179 201 235 245 219 330 290 278 232 233 206 278 102 172 47 311 141 157 196 175 174 173 181 179 156
354 358 7 19 21 4 345 331 312 208 197 211 202 233 299 180 177 190 188 187 180 203 208 230 109 220 243 250 250 258 217 167 151 107 91 236 147 166 200 178 176 183 181 167 158
354 343 341 341 341 331 328 312 350 320 290 278 261 263 269 215 181 183 189 185 186 196 204 157 218 233 227 243 249 255 267 75 37 133 51 200 139 159 194 199 181 187 180 167 162
348 340 326 319 320 311 305 292 334 320 292 288 247 246 264 180 180 195 182 203 198 204 198 221 230 223 242 238 247 246 255 181 159 137 117 133 72 185 197 191 190 191 180 171 169
336 334 322 312 310 310 290 291 328 319 304 263 177 244 221 171 207 196 192 210 191 203 213 221 250 230 234 246 237 244 252 191 133 141 182 174 48 311 212 199 210 211 206 179 184
324 325 334 322 304 311 348 356 318 293 276 145 176 202 209 208 207 187 181 220 235 191 194 246 241 248 223 242 232 243 143 151 162 186 113 198 122 225 222 193 198 207 220 201 199
319 310 306 313 303 306 321 335 295 271 309 219 128 167 206 206 244 180 175 220 244 259 224 235 249 244 230 237 235 259 188 168 94 83 101 194 153 201 183 185 192 208 205 215 208
314 306 300 295 296 348 341 308 280 32 337 340 15 168 221 197 225 208 172 209 229 227 253 230 248 253 250 234 280 285 187 272 238 159 225 210 186 239 176 161 174 184 288 220 221
312 297 286 275 306 350 333 326 34 212 274 289 291 298 226 212 229 182 169 201 239 250 254 212 250 248 209 224 229 252 199 179 206 191 215 114 144 249 186 155 146 158 243 264 217
312 306 279 235 216 32 303 63 212 248 277 303 318 316 196 129 17 349 213 210 225 239 195 280 224 236 172 195 225 286 231 230 293 274 150 110 51 41 108 97 105 135 174 268 245
323 306 266 226 266 138 60 241 221 209 247 282 297 32 15 28 36 17 359 224 26 20 341 308 323 299 188 162 334 110 317 3 353 283 72 91 150 155 170 141 106 92 96 69 84
337 315 97 140 148 62 107 249 245 238 56 304 303 96 38 45 79 65 342 304 9 351 342 68 349 293 135 164 133 317 300 293 85 253 140 148 98 347 122 108 99 90 88 78 80
328 291 238 222 88 129 226 206 233 147 84 284 27 33 39 74 48 140 187 273 329 324 23 352 266 281 236 275 182 245 251 224 142 300 87 112 79 346 90 97 90 83 89 89 96
325 264 104 169 125 227 235 230 39 347 180 261 146 147 70 127 126 151 235 284 298 28 45 352 313 345 301 156 274 236 262 271 291 64 177 93 150 148 92 95 99 92 100 96 99
318 298 89 54 61 31 47 132 131 42 352 2 325 147 116 145 208 213 246 199 288 29 336 144 329 150 216 262 321 219 253 271 242 61 71 13 132 146 130 127 113 103 104 98 93
265 356 359 22 5 65 9 7 80 84 15 323 196 325 66 46 5 273 348 195 218 149 306 105 340 336 250 261 343 342 215 249 231 136 133 180 136 148 140 132 120 117 112 107 102
324 3 354 128 240 123 94 32 56 31 7 23 12 10 113 119 147 301 354 1 299 159 197 349 260 324 325 337 347 342 305 213 8 108 120 93 103 125 122 118 112 114 114 106 102
3 350 353 278 294 82 51 45 77 11 72 35 356 23 57 51 350 316 314 309 12 26 347 81 99 247 285 321 330 351 352 46 18 89 129 141 152 143 140 132 127 128 108 100 102